CUB471 LEBL-LEMD

Flight info

Callsign CUB471
Flight time 0h 54m
Altitude 27000
Route SENIA Z596 NEXAS N975 ADUXO
Aircraft B77W/H-SDE1E2E3FGHIJ2J3J4J5M1RWXY/LB1D1

Departure

Time 2026-05-04 20:40
Airport Josep Tarradellas Barcelona-El Prat Airport (LEBL)

Arrival

Time 2026-05-04 21:34
Airport Adolfo Suárez Madrid–Barajas Airport (LEMD)
Time Latitude Longitude Altitude Speed Heading
2026-05-04 19:22 41.28824 2.07719 29 ft 0 kts 243°
2026-05-04 20:24 41.28826 2.07726 30 ft 2 kts 243°
2026-05-04 20:24 41.28833 2.07744 30 ft 2 kts 243°
2026-05-04 20:24 41.28840 2.07762 30 ft 2 kts 243°
2026-05-04 20:24 41.28846 2.07779 30 ft 2 kts 243°
2026-05-04 20:25 41.28853 2.07797 29 ft 2 kts 245°
2026-05-04 20:25 41.28859 2.07816 30 ft 2 kts 245°
2026-05-04 20:25 41.28866 2.07833 29 ft 2 kts 245°
2026-05-04 20:25 41.28872 2.07851 30 ft 2 kts 245°
2026-05-04 20:26 41.28878 2.07869 30 ft 2 kts 245°
2026-05-04 20:26 41.28885 2.07888 30 ft 2 kts 245°
2026-05-04 20:26 41.28891 2.07906 30 ft 2 kts 245°
2026-05-04 20:26 41.28893 2.07910 30 ft 0 kts 245°
2026-05-04 20:32 41.28891 2.07904 30 ft 2 kts 245°
2026-05-04 20:32 41.28873 2.07870 29 ft 6 kts 220°
2026-05-04 20:32 41.28827 2.07870 29 ft 8 kts 160°
2026-05-04 20:32 41.28763 2.07905 29 ft 11 kts 155°
2026-05-04 20:33 41.28689 2.07951 29 ft 11 kts 155°
2026-05-04 20:33 41.28630 2.07997 29 ft 8 kts 123°
2026-05-04 20:33 41.28637 2.08074 29 ft 9 kts 68°
2026-05-04 20:33 41.28666 2.08160 29 ft 10 kts 65°
2026-05-04 20:34 41.28698 2.08253 29 ft 11 kts 65°
2026-05-04 20:34 41.28733 2.08353 29 ft 12 kts 65°
2026-05-04 20:34 41.28770 2.08461 29 ft 13 kts 65°
2026-05-04 20:34 41.28808 2.08573 29 ft 13 kts 66°
2026-05-04 20:35 41.28848 2.08690 29 ft 14 kts 65°
2026-05-04 20:35 41.28890 2.08811 29 ft 14 kts 65°
2026-05-04 20:35 41.28933 2.08937 30 ft 15 kts 66°
2026-05-04 20:35 41.28976 2.09065 30 ft 15 kts 65°
2026-05-04 20:36 41.29022 2.09197 30 ft 15 kts 65°
2026-05-04 20:36 41.29068 2.09331 30 ft 16 kts 65°
2026-05-04 20:36 41.29115 2.09467 30 ft 16 kts 65°
2026-05-04 20:36 41.29161 2.09605 29 ft 16 kts 66°
2026-05-04 20:37 41.29208 2.09738 30 ft 15 kts 64°
2026-05-04 20:37 41.29248 2.09858 30 ft 10 kts 65°
2026-05-04 20:37 41.29283 2.09944 30 ft 10 kts 59°
2026-05-04 20:37 41.29318 2.10029 30 ft 10 kts 64°
2026-05-04 20:38 41.29349 2.10115 30 ft 10 kts 65°
2026-05-04 20:38 41.29369 2.10204 30 ft 9 kts 91°
2026-05-04 20:38 41.29331 2.10269 30 ft 9 kts 156°
2026-05-04 20:38 41.29279 2.10291 30 ft 5 kts 163°
2026-05-04 20:39 41.29248 2.10303 30 ft 4 kts 165°
2026-05-04 20:39 41.29224 2.10303 30 ft 2 kts 204°
2026-05-04 20:39 41.29210 2.10285 30 ft 3 kts 232°
2026-05-04 20:39 41.29190 2.10234 30 ft 14 kts 245°
2026-05-04 20:40 41.29066 2.09872 30 ft 85 kts 246°
2026-05-04 20:40 41.28702 2.08811 38 ft 164 kts 246°
2026-05-04 20:40 41.28199 2.07362 701 ft 184 kts 244°
2026-05-04 20:40 41.27328 2.06083 1613 ft 197 kts 211°
2026-05-04 20:41 41.25982 2.05681 2364 ft 213 kts 176°
2026-05-04 20:41 41.24538 2.06177 3258 ft 218 kts 172°
2026-05-04 20:41 41.23063 2.06048 4092 ft 218 kts 203°
2026-05-04 20:41 41.21671 2.05264 5052 ft 218 kts 206°
2026-05-04 20:42 41.20275 2.04541 5982 ft 220 kts 204°
2026-05-04 20:42 41.18851 2.03870 6843 ft 224 kts 204°
2026-05-04 20:42 41.17480 2.02982 7714 ft 221 kts 223°
2026-05-04 20:42 41.16549 2.01429 8525 ft 220 kts 247°
2026-05-04 20:43 41.15992 1.99545 9399 ft 221 kts 246°
2026-05-04 20:43 41.15225 1.97783 10188 ft 225 kts 237°
2026-05-04 20:43 41.14301 1.96137 11000 ft 227 kts 234°
2026-05-04 20:43 41.13442 1.94429 11788 ft 228 kts 246°
2026-05-04 20:44 41.12892 1.92372 12333 ft 243 kts 252°
2026-05-04 20:44 41.12394 1.90215 13092 ft 248 kts 252°
2026-05-04 20:44 41.11904 1.88059 13943 ft 250 kts 255°
2026-05-04 20:44 41.11649 1.85789 14783 ft 254 kts 267°
2026-05-04 20:45 41.11792 1.83463 15524 ft 263 kts 278°
2026-05-04 20:45 41.12358 1.81047 15984 ft 284 kts 287°
2026-05-04 20:45 41.13188 1.78606 16433 ft 304 kts 295°
2026-05-04 20:45 41.14470 1.76209 16894 ft 328 kts 307°
2026-05-04 20:46 41.16097 1.73986 17388 ft 345 kts 307°
2026-05-04 20:46 41.17607 1.71498 17887 ft 357 kts 301°
2026-05-04 20:46 41.18939 1.68655 18518 ft 365 kts 295°
2026-05-04 20:46 41.20059 1.65657 19367 ft 368 kts 290°
2026-05-04 20:47 41.21025 1.62513 20320 ft 368 kts 286°
2026-05-04 20:47 41.21882 1.59362 21171 ft 370 kts 285°
2026-05-04 20:47 41.22684 1.56096 21897 ft 375 kts 281°
2026-05-04 20:47 41.23164 1.52690 22626 ft 376 kts 272°
2026-05-04 20:48 41.23216 1.49283 23421 ft 375 kts 264°
2026-05-04 20:48 41.22846 1.45857 24184 ft 376 kts 255°
2026-05-04 20:48 41.22036 1.42539 24867 ft 380 kts 249°
2026-05-04 20:48 41.21166 1.39274 25607 ft 382 kts 250°
2026-05-04 20:49 41.20312 1.35950 26364 ft 385 kts 250°
2026-05-04 20:49 41.19462 1.32542 26879 ft 387 kts 250°
2026-05-04 20:49 41.18636 1.29149 26934 ft 385 kts 251°
2026-05-04 20:49 41.17829 1.25796 26936 ft 382 kts 251°
2026-05-04 20:50 41.17018 1.22400 26936 ft 382 kts 251°
2026-05-04 20:50 41.16212 1.19005 26940 ft 382 kts 251°
2026-05-04 20:50 41.15422 1.15667 26936 ft 383 kts 251°
2026-05-04 20:50 41.14622 1.12282 26942 ft 382 kts 251°
2026-05-04 20:51 41.13826 1.08910 26942 ft 382 kts 251°
2026-05-04 20:51 41.13034 1.05559 26939 ft 382 kts 251°
2026-05-04 20:51 41.12240 1.02199 26940 ft 382 kts 251°
2026-05-04 20:51 41.11442 0.98824 26942 ft 381 kts 251°
2026-05-04 20:52 41.10659 0.95516 26946 ft 382 kts 252°
2026-05-04 20:52 41.09864 0.92166 26941 ft 381 kts 252°
2026-05-04 20:52 41.09018 0.88835 26936 ft 379 kts 246°
2026-05-04 20:52 41.07760 0.85750 26937 ft 382 kts 236°
2026-05-04 20:53 41.06049 0.83045 26937 ft 384 kts 226°
2026-05-04 20:53 41.03965 0.80858 26935 ft 385 kts 216°
2026-05-04 20:53 41.01572 0.79263 26932 ft 389 kts 205°
2026-05-04 20:53 40.98966 0.78200 26943 ft 394 kts 200°
2026-05-04 20:54 40.96356 0.77146 26939 ft 390 kts 206°
2026-05-04 20:54 40.93971 0.75554 26931 ft 385 kts 216°
2026-05-04 20:54 40.91850 0.73372 26932 ft 383 kts 226°
2026-05-04 20:54 40.90124 0.70756 26935 ft 380 kts 236°
2026-05-04 20:55 40.88786 0.67705 26949 ft 393 kts 246°
2026-05-04 20:55 40.87893 0.64227 27103 ft 410 kts 256°
2026-05-04 20:55 40.87537 0.60458 27577 ft 420 kts 266°
2026-05-04 20:55 40.87452 0.56628 28485 ft 419 kts 267°
2026-05-04 20:56 40.87384 0.52838 29656 ft 410 kts 266°
2026-05-04 20:56 40.87317 0.49141 30562 ft 406 kts 266°
2026-05-04 20:56 40.87246 0.45408 30906 ft 407 kts 266°
2026-05-04 20:56 40.87174 0.41687 30943 ft 404 kts 266°
2026-05-04 20:57 40.87084 0.34383 30953 ft 400 kts 268°
2026-05-04 20:57 40.87140 0.27010 30963 ft 400 kts 268°
2026-05-04 20:58 40.87180 0.19706 30962 ft 401 kts 268°
2026-05-04 20:58 40.87210 0.12332 30965 ft 400 kts 268°
2026-05-04 20:59 40.87231 0.05004 30959 ft 401 kts 268°
2026-05-04 20:59 40.87246 -0.02338 30956 ft 400 kts 268°
2026-05-04 21:00 40.87256 -0.09631 30960 ft 399 kts 268°
2026-05-04 21:00 40.87262 -0.16955 30966 ft 399 kts 268°
2026-05-04 21:01 40.87262 -0.24292 30963 ft 400 kts 268°
2026-05-04 21:01 40.87257 -0.31602 30968 ft 400 kts 268°
2026-05-04 21:02 40.87248 -0.38935 30975 ft 398 kts 268°
2026-05-04 21:02 40.87235 -0.46202 30990 ft 397 kts 268°
2026-05-04 21:03 40.87217 -0.53434 31002 ft 396 kts 268°
2026-05-04 21:03 40.87193 -0.60720 31004 ft 397 kts 268°
2026-05-04 21:04 40.87166 -0.67947 31013 ft 396 kts 267°
2026-05-04 21:04 40.87135 -0.75230 31020 ft 394 kts 267°
2026-05-04 21:05 40.86247 -0.82284 31013 ft 393 kts 251°
2026-05-04 21:05 40.84417 -0.89021 31027 ft 392 kts 250°
2026-05-04 21:06 40.82563 -0.95731 31028 ft 392 kts 250°
2026-05-04 21:06 40.80691 -1.02482 31026 ft 390 kts 250°
2026-05-04 21:07 40.78828 -1.09178 31019 ft 392 kts 250°
2026-05-04 21:07 40.76960 -1.15874 31017 ft 390 kts 250°
2026-05-04 21:08 40.75077 -1.22605 31003 ft 391 kts 250°
2026-05-04 21:08 40.73199 -1.29302 31004 ft 390 kts 250°
2026-05-04 21:09 40.71342 -1.35912 30387 ft 382 kts 250°
2026-05-04 21:09 40.70438 -1.39125 29946 ft 375 kts 250°
2026-05-04 21:09 40.69540 -1.42314 29514 ft 369 kts 250°
2026-05-04 21:10 40.68653 -1.45456 29042 ft 364 kts 250°
2026-05-04 21:10 40.67781 -1.48541 28585 ft 366 kts 250°
2026-05-04 21:10 40.66875 -1.51747 28100 ft 377 kts 250°
2026-05-04 21:10 40.65969 -1.54946 27597 ft 376 kts 250°
2026-05-04 21:11 40.65058 -1.58158 27100 ft 373 kts 250°
2026-05-04 21:11 40.64153 -1.61347 26611 ft 370 kts 250°
2026-05-04 21:11 40.63260 -1.64490 26133 ft 367 kts 250°
2026-05-04 21:11 40.62368 -1.67624 25658 ft 366 kts 249°
2026-05-04 21:12 40.61486 -1.70722 25172 ft 366 kts 249°
2026-05-04 21:12 40.60592 -1.73853 24660 ft 365 kts 249°
2026-05-04 21:12 40.59708 -1.76951 24169 ft 362 kts 249°
2026-05-04 21:12 40.58825 -1.80037 23696 ft 360 kts 249°
2026-05-04 21:13 40.57955 -1.83077 23205 ft 359 kts 249°
2026-05-04 21:13 40.57075 -1.86145 22724 ft 356 kts 249°
2026-05-04 21:13 40.56202 -1.89189 22242 ft 354 kts 249°
2026-05-04 21:13 40.55346 -1.92169 21764 ft 353 kts 249°
2026-05-04 21:14 40.54483 -1.95168 21289 ft 351 kts 249°
2026-05-04 21:14 40.53617 -1.98177 20800 ft 350 kts 249°
2026-05-04 21:14 40.52766 -2.01130 20325 ft 349 kts 249°
2026-05-04 21:14 40.51912 -2.04087 19863 ft 347 kts 249°
2026-05-04 21:15 40.50935 -2.07002 19374 ft 345 kts 241°
2026-05-04 21:15 40.49735 -2.09668 18918 ft 343 kts 239°
2026-05-04 21:15 40.48483 -2.12348 18450 ft 341 kts 239°
2026-05-04 21:15 40.47257 -2.14966 17999 ft 340 kts 239°
2026-05-04 21:16 40.46014 -2.17618 17538 ft 338 kts 239°
2026-05-04 21:16 40.44795 -2.20223 17084 ft 336 kts 239°
2026-05-04 21:16 40.43577 -2.22824 16666 ft 332 kts 239°
2026-05-04 21:16 40.42374 -2.25392 16245 ft 331 kts 239°
2026-05-04 21:17 40.41185 -2.27928 15795 ft 330 kts 239°
2026-05-04 21:17 40.39986 -2.30484 15325 ft 329 kts 239°
2026-05-04 21:17 40.38780 -2.33050 14848 ft 327 kts 239°
2026-05-04 21:17 40.37606 -2.35548 14395 ft 323 kts 239°
2026-05-04 21:18 40.36443 -2.38018 13945 ft 320 kts 239°
2026-05-04 21:18 40.35280 -2.40489 13505 ft 316 kts 239°
2026-05-04 21:18 40.34138 -2.42911 13077 ft 313 kts 239°
2026-05-04 21:18 40.32996 -2.45332 12644 ft 310 kts 239°
2026-05-04 21:19 40.31865 -2.47728 12212 ft 307 kts 239°
2026-05-04 21:19 40.30755 -2.50077 11788 ft 305 kts 239°
2026-05-04 21:19 40.29644 -2.52428 11369 ft 303 kts 239°
2026-05-04 21:19 40.28547 -2.54747 10952 ft 300 kts 239°
2026-05-04 21:20 40.27457 -2.57049 10536 ft 299 kts 239°
2026-05-04 21:20 40.26454 -2.59423 10106 ft 296 kts 251°
2026-05-04 21:20 40.26104 -2.62026 9810 ft 290 kts 266°
2026-05-04 21:20 40.26046 -2.64608 9762 ft 275 kts 269°
2026-05-04 21:21 40.26035 -2.67029 9718 ft 258 kts 269°
2026-05-04 21:21 40.26029 -2.69313 9664 ft 247 kts 269°
2026-05-04 21:21 40.26023 -2.71530 9580 ft 240 kts 269°
2026-05-04 21:21 40.26016 -2.73692 9501 ft 237 kts 269°
2026-05-04 21:22 40.26009 -2.75857 9421 ft 237 kts 269°
2026-05-04 21:22 40.26001 -2.78014 9341 ft 239 kts 269°
2026-05-04 21:22 40.25993 -2.80182 9256 ft 238 kts 269°
2026-05-04 21:22 40.25985 -2.82366 9173 ft 238 kts 269°
2026-05-04 21:23 40.25976 -2.84509 9094 ft 239 kts 269°
2026-05-04 21:23 40.25967 -2.86674 9011 ft 237 kts 269°
2026-05-04 21:23 40.25957 -2.88840 8930 ft 237 kts 269°
2026-05-04 21:23 40.25947 -2.90994 8850 ft 237 kts 269°
2026-05-04 21:24 40.25937 -2.93153 8768 ft 237 kts 269°
2026-05-04 21:24 40.25926 -2.95299 8686 ft 236 kts 269°
2026-05-04 21:24 40.25915 -2.97423 8607 ft 236 kts 269°
2026-05-04 21:24 40.25903 -2.99567 8528 ft 236 kts 269°
2026-05-04 21:25 40.25892 -3.01725 8445 ft 236 kts 269°
2026-05-04 21:25 40.25879 -3.03859 8365 ft 234 kts 269°
2026-05-04 21:25 40.25867 -3.05971 8289 ft 235 kts 269°
2026-05-04 21:25 40.25853 -3.08119 8207 ft 234 kts 269°
2026-05-04 21:26 40.25840 -3.10253 8130 ft 234 kts 269°
2026-05-04 21:26 40.25827 -3.12357 8052 ft 234 kts 269°
2026-05-04 21:26 40.25930 -3.14472 7962 ft 235 kts 278°
2026-05-04 21:26 40.26205 -3.16601 7725 ft 237 kts 279°
2026-05-04 21:27 40.26489 -3.18696 7483 ft 234 kts 279°
2026-05-04 21:27 40.26769 -3.20791 7260 ft 231 kts 279°
2026-05-04 21:27 40.27040 -3.22841 7047 ft 231 kts 279°
2026-05-04 21:27 40.27314 -3.24918 6860 ft 229 kts 279°
2026-05-04 21:28 40.27582 -3.26956 6720 ft 229 kts 279°
2026-05-04 21:28 40.27854 -3.29021 6570 ft 229 kts 279°
2026-05-04 21:28 40.28122 -3.31064 6418 ft 228 kts 280°
2026-05-04 21:28 40.28677 -3.32972 6255 ft 229 kts 303°
2026-05-04 21:29 40.29645 -3.34618 6110 ft 224 kts 308°
2026-05-04 21:29 40.30629 -3.36147 5963 ft 220 kts 309°
2026-05-04 21:29 40.31642 -3.37643 5809 ft 215 kts 315°
2026-05-04 21:29 40.32774 -3.38872 5596 ft 213 kts 320°
2026-05-04 21:30 40.33941 -3.40056 5311 ft 212 kts 320°
2026-05-04 21:30 40.35111 -3.41251 5027 ft 211 kts 320°
2026-05-04 21:30 40.36254 -3.42411 4751 ft 210 kts 320°
2026-05-04 21:30 40.37392 -3.43560 4477 ft 194 kts 320°
2026-05-04 21:31 40.39373 -3.45567 3993 ft 169 kts 320°
2026-05-04 21:31 40.40294 -3.46498 3768 ft 165 kts 320°
2026-05-04 21:31 40.41195 -3.47407 3545 ft 163 kts 321°
2026-05-04 21:32 40.42063 -3.48283 3325 ft 157 kts 320°
2026-05-04 21:32 40.42933 -3.49162 3108 ft 156 kts 320°
2026-05-04 21:32 40.43788 -3.50025 2892 ft 155 kts 320°
2026-05-04 21:32 40.44653 -3.50882 2672 ft 154 kts 321°
2026-05-04 21:33 40.45502 -3.51737 2445 ft 155 kts 321°
2026-05-04 21:33 40.46355 -3.52596 2223 ft 153 kts 320°
2026-05-04 21:33 40.47207 -3.53459 2043 ft 155 kts 320°
2026-05-04 21:33 40.48038 -3.54305 1970 ft 142 kts 320°
2026-05-04 21:34 40.48740 -3.55022 1968 ft 111 kts 322°
2026-05-04 21:34 40.49235 -3.55524 1968 ft 56 kts 322°
2026-05-04 21:34 40.49448 -3.55734 1968 ft 27 kts 324°
2026-05-04 21:34 40.49546 -3.55879 1968 ft 17 kts 291°
2026-05-04 21:35 40.49553 -3.56000 1968 ft 11 kts 269°
2026-05-04 21:35 40.49553 -3.56076 1968 ft 4 kts 271°
2026-05-04 21:35 40.49551 -3.56102 1968 ft 3 kts 255°
2026-05-04 21:35 40.49537 -3.56130 1968 ft 4 kts 220°
2026-05-04 21:36 40.49509 -3.56136 1968 ft 5 kts 181°
2026-05-04 21:36 40.49463 -3.56137 1968 ft 7 kts 181°
2026-05-04 21:36 40.49405 -3.56138 1968 ft 9 kts 181°
2026-05-04 21:36 40.49337 -3.56137 1968 ft 10 kts 179°
2026-05-04 21:37 40.49260 -3.56136 1968 ft 10 kts 180°
2026-05-04 21:37 40.49188 -3.56136 1968 ft 10 kts 180°
2026-05-04 21:37 40.49119 -3.56136 1968 ft 9 kts 180°
2026-05-04 21:37 40.49053 -3.56135 1968 ft 9 kts 180°
2026-05-04 21:38 40.48991 -3.56134 1968 ft 8 kts 180°
2026-05-04 21:38 40.48931 -3.56135 1968 ft 8 kts 180°
2026-05-04 21:38 40.48876 -3.56135 1968 ft 7 kts 180°
2026-05-04 21:38 40.48823 -3.56135 1968 ft 7 kts 187°
2026-05-04 21:39 40.48780 -3.56166 1968 ft 7 kts 235°
2026-05-04 21:39 40.48769 -3.56232 1968 ft 7 kts 268°
2026-05-04 21:39 40.48767 -3.56303 1968 ft 7 kts 270°
2026-05-04 21:39 40.48767 -3.56376 1968 ft 8 kts 270°
2026-05-04 21:40 40.48766 -3.56449 1968 ft 8 kts 270°
2026-05-04 21:40 40.48766 -3.56524 1968 ft 8 kts 270°
2026-05-04 21:40 40.48766 -3.56601 1968 ft 8 kts 270°
2026-05-04 21:40 40.48766 -3.56678 1968 ft 8 kts 271°
2026-05-04 21:41 40.48766 -3.56756 1968 ft 8 kts 270°
2026-05-04 21:41 40.48766 -3.56834 1968 ft 8 kts 270°
2026-05-04 21:41 40.48766 -3.56914 1968 ft 8 kts 271°
2026-05-04 21:41 40.48766 -3.56992 1968 ft 8 kts 270°
2026-05-04 21:42 40.48766 -3.57072 1968 ft 8 kts 270°
2026-05-04 21:42 40.48766 -3.57152 1968 ft 8 kts 270°
2026-05-04 21:42 40.48766 -3.57233 1968 ft 8 kts 270°
2026-05-04 21:42 40.48766 -3.57314 1968 ft 8 kts 270°
2026-05-04 21:43 40.48766 -3.57394 1968 ft 8 kts 270°
2026-05-04 21:43 40.48766 -3.57476 1968 ft 8 kts 270°
2026-05-04 21:43 40.48766 -3.57557 1968 ft 8 kts 270°
2026-05-04 21:43 40.48766 -3.57639 1968 ft 8 kts 270°
2026-05-04 21:44 40.48766 -3.57720 1968 ft 9 kts 270°
2026-05-04 21:44 40.48767 -3.57803 1968 ft 9 kts 270°
2026-05-04 21:44 40.48766 -3.57884 1968 ft 8 kts 264°
2026-05-04 21:44 40.48727 -3.57931 1968 ft 8 kts 190°
2026-05-04 21:45 40.48667 -3.57934 1968 ft 9 kts 180°
2026-05-04 21:45 40.48597 -3.57922 1968 ft 11 kts 158°
2026-05-04 21:45 40.48524 -3.57871 1968 ft 12 kts 152°
2026-05-04 21:45 40.48442 -3.57812 1968 ft 14 kts 151°
2026-05-04 21:46 40.48358 -3.57736 1968 ft 15 kts 142°
2026-05-04 21:46 40.48271 -3.57646 1968 ft 16 kts 142°
2026-05-04 21:46 40.48177 -3.57550 1968 ft 17 kts 143°
2026-05-04 21:46 40.48077 -3.57449 1968 ft 18 kts 143°
2026-05-04 21:47 40.47972 -3.57342 1968 ft 19 kts 142°
2026-05-04 21:47 40.47864 -3.57231 1968 ft 20 kts 143°
2026-05-04 21:47 40.47752 -3.57117 1968 ft 20 kts 142°
2026-05-04 21:47 40.47636 -3.57000 1968 ft 21 kts 143°
2026-05-04 21:48 40.47516 -3.56878 1968 ft 22 kts 142°
2026-05-04 21:48 40.47396 -3.56754 1968 ft 22 kts 142°
2026-05-04 21:48 40.47275 -3.56631 1968 ft 21 kts 142°
2026-05-04 21:48 40.47154 -3.56514 1968 ft 21 kts 149°
2026-05-04 21:49 40.47016 -3.56457 1968 ft 20 kts 175°
2026-05-04 21:49 40.46882 -3.56459 1968 ft 18 kts 184°
2026-05-04 21:49 40.46758 -3.56469 1968 ft 17 kts 184°
2026-05-04 21:49 40.46642 -3.56479 1968 ft 16 kts 184°
2026-05-04 21:50 40.46534 -3.56488 1968 ft 15 kts 184°
2026-05-04 21:50 40.46433 -3.56495 1968 ft 14 kts 184°
2026-05-04 21:50 40.46360 -3.56501 1968 ft 8 kts 184°
2026-05-04 21:50 40.46311 -3.56529 1968 ft 7 kts 236°
2026-05-04 21:51 40.46303 -3.56596 1968 ft 7 kts 271°
2026-05-04 21:51 40.46303 -3.56664 1968 ft 7 kts 271°
2026-05-04 21:51 40.46301 -3.56732 1968 ft 7 kts 262°
2026-05-04 21:51 40.46278 -3.56798 1968 ft 8 kts 230°
2026-05-04 21:52 40.46233 -3.56845 1968 ft 8 kts 215°
2026-05-04 21:52 40.46187 -3.56890 1968 ft 8 kts 220°
2026-05-04 21:52 40.46149 -3.56942 1968 ft 7 kts 231°
2026-05-04 21:52 40.46114 -3.56996 1968 ft 7 kts 230°
2026-05-04 21:53 40.46081 -3.57049 1968 ft 7 kts 231°
2026-05-04 21:53 40.46053 -3.57103 1968 ft 6 kts 252°
2026-05-04 21:53 40.46062 -3.57161 1968 ft 6 kts 304°
2026-05-04 21:53 40.46091 -3.57209 1968 ft 6 kts 303°
2026-05-04 21:54 40.46101 -3.57269 1968 ft 6 kts 281°
2026-05-04 21:54 40.46125 -3.57321 1968 ft 6 kts 314°
2026-05-04 21:54 40.46140 -3.57341 1968 ft 0 kts 315°
2026-05-04 21:54 40.46141 -3.57342 1968 ft 0 kts 315°
2026-05-04 21:55 40.46144 -3.57346 1968 ft 0 kts 314°